{"data":{"norad_id":47641,"intl_designator":"2021-012X","name":"STARLINK-2019","alt_names":[],"object_type":"PAYLOAD","status":"ACTIVE","operator":null,"country":"US","launch_date":"2021-02-16","launch_site_code":"AFETR","launch_vehicle":null,"mission":null,"orbit_class":"UNKNOWN","rcs_meters":null,"size_class":null,"mass_kg":null,"dimensions":null,"purposes":["comms"],"wikipedia_slug":null,"has_3d_model":false,"image_url":null,"decayed_at":null,"tle_current":{"epoch":"2026-05-25T02:42:05.947776Z","epoch_age_seconds":75400,"freshness":"FRESH","line1":"1 47641U 21012X   26145.11256884  .00108194  00000+0  72491-3 0  9999","line2":"2 47641  53.0397 286.8212 0003321 278.8715  81.1928 15.74456926293751","mean_motion":15.74456926,"eccentricity":0.0003321,"inclination_deg":53.0397,"raan_deg":286.8212,"arg_perigee_deg":278.8715,"mean_anomaly_deg":81.1928,"bstar":0.00072491,"rev_number":29375,"period_min":91.460107686681,"perigee_km":343.94386106618,"apogee_km":348.4101504288,"semimajor_km":6724.3140057475,"source":"CELESTRAK","updated_at":"2026-05-25T13:38:16.561287Z"}}}